Regional Weather Roundup
Issued by NWS

Home | Current Version | Previous Version | Text Only | Print | Product List | Glossary Off
Versions: 1 2 3 4 5 6 7 8 9 10 11 12 13 14 15 16 17 18 19 20 21 22 23 24 25 26 27 28 29 30 31 32 33 34 35 36 37 38 39 40 41 42 43 44 45 46 47 48 49 50

000
ASUS43 KLSX 251407
RWRMO

WEATHER SUMMARY FOR MISSOURI
NATIONAL WEATHER SERVICE SPRINGFIELD MO
800 AM CST SUN JAN 25 2015

NOTE: "FAIR" INDICATES FEW OR NO CLOUDS BELOW 12,000 FEET WITH NO
       SIGNIFICANT WEATHER AND/OR OBSTRUCTIONS TO VISIBILITY.
       CURRENT SKY AND/OR WEATHER CONDITIONS ARE NOT AVAILABLE FOR
       CHILLICOTHE AND FARMINGTON.

MOZ001>031-035>038-043-044-053-054-251500-
...NORTHERN AND WESTERN MISSOURI...

CITY           SKY/WX    TMP DP  RH WIND       PRES   REMARKS
KANSAS CTY INT DRIZZLE   37  34  89 NW17G28   29.70R FOG     WCI  27
KANSAS C DTWN  CLOUDY    39  35  86 NW15G25   29.70R
LEE`S SUMMIT   LGT RAIN  39  35  86 W16G23    29.69R
ST JOSEPH      CLOUDY    36  32  85 NW26G35   29.74R WCI  24
CHILLICOTHE      N/A     41  38  89 NW13G20   29.62S
KIRKSVILLE     CLOUDY    41  41 100 NW7       29.57R FOG

$$
MOZ066>068-077>081-088>096-101>105-251500-
...SOUTHWEST MISSOURI...

CITY           SKY/WX    TMP DP  RH WIND       PRES   REMARKS
SPRINGFIELD    CLOUDY    46  37  71 W15G22    29.67R
JOPLIN         CLOUDY    47  34  60 W18G25    29.74R

$$
MOZ032>034-039>042-045>050-055>058-069>072-251500-
...CENTRAL MISSOURI...

CITY           SKY/WX    TMP DP  RH WIND       PRES   REMARKS
COLUMBIA       MOCLDY    43  41  93 W13       29.59S
JEFFERSON CITY CLOUDY    44  39  82 NW8       29.61S
ROLLA          CLOUDY    45  39  79 W12G21    29.58F
SEDALIA        CLOUDY    44  37  76 NW14      29.63S
WHITEMAN AFB   CLOUDY    44  38  79 NW15G23   29.63R
WARRENSBURG    CLOUDY    43  36  75 NW15G23   29.65R
OSAGE BEACH    CLOUDY    45  39  81 W7        29.62R

$$
MOZ051-052-059>065-251500-
...EAST CENTRAL MISSOURI...

CITY           SKY/WX    TMP DP  RH WIND       PRES   REMARKS
ST LOUIS INTL  CLOUDY    46  42  86 CALM      29.58F
SPIRIT OF STL  LGT RAIN  45  41  86 SW6       29.57F
ST CHARLES     FOG       41  40  96 NE6       29.58F VSB 3/4

$$
MOZ072>076-082>087-097>100-106>115-251500-
...SOUTH CENTRAL AND SOUTHEAST MISSOURI...

CITY           SKY/WX    TMP DP  RH WIND       PRES   REMARKS
CAPE GIRARDEAU LGT RAIN  39  37  92 S7        29.66F
FARMINGTON     CLOUDY    45  32  61 MISG      29.63S
POPLAR BLUFF   LGT RAIN  40  36  86 SW7       29.66F
WEST PLAINS    CLOUDY    43  40  89 SW8       29.65F

$$


USA.gov is the U.S. government's official web portal to all federal, state and local government web resources and services.